When you browse on this site, cookies collect data to enhance your experience and personalize the content and advertising you see.
Visit our Privacy Policy to learn more. By continuing to use the site, you agree to this use of cookies and data.
  • In Portugal
  • List of Countries
  • For 7 days
  • Water Temperature
  • Satellite Maps
  • Weather Map
  • Weather Widgets
  • user-avatar
    Login

    Hourly Weather Porto-Novo

    Today, 19 February, Tuesday

    Time Temperature Precipitation Wind Pressure Humidity
    00:00 +30°C° 0 mm 4 mps 756 mmHg 81%
    01:00 +30°C° 0 mm 4 mps 756 mmHg 82%
    02:00 +30°C° 0 mm 3 mps 756 mmHg 82%
    03:00 +30°C° 0 mm 3 mps 756 mmHg 83%
    04:00 +29°C° 0.7 mm 3 mps 756 mmHg 85%
    05:00 +29°C° 0.7 mm 2 mps 756 mmHg 86%
    06:00 +29°C° 0.7 mm 2 mps 756 mmHg 88%
    07:00 +30°C° 0.1 mm 2 mps 756 mmHg 80%
    08:00 +32°C° 0.1 mm 2 mps 757 mmHg 73%
    09:00 +34°C° 0.1 mm 3 mps 757 mmHg 66%
    10:00 +35°C° 0.1 mm 3 mps 757 mmHg 62%
    11:00 +36°C° 0.1 mm 3 mps 756 mmHg 57%
    12:00 +37°C° 0.1 mm 3 mps 756 mmHg 53%
    13:00 +37°C° 0.1 mm 3 mps 755 mmHg 52%
    14:00 +37°C° 0.1 mm 4 mps 754 mmHg 52%
    15:00 +37°C° 0.1 mm 4 mps 754 mmHg 52%
    16:00 +35°C° 0 mm 4 mps 754 mmHg 58%
    17:00 +34°C° 0 mm 4 mps 754 mmHg 64%
    18:00 +32°C° 0 mm 5 mps 754 mmHg 70%
    19:00 +32°C° 0 mm 5 mps 755 mmHg 72%
    20:00 +32°C° 0 mm 5 mps 755 mmHg 74%
    21:00 +32°C° 0 mm 5 mps 756 mmHg 76%
    22:00 +30°C° 0 mm 5 mps 756 mmHg 78%
    23:00 +30°C° 0 mm 5 mps 756 mmHg 79%

    Tomorrow, 20 February, Wednesday

    Time Temperature Precipitation Wind Pressure Humidity
    00:00 +30°C° 0 mm 5 mps 756 mmHg 80%
    01:00 +30°C° 0 mm 5 mps 756 mmHg 80%
    02:00 +30°C° 0 mm 4 mps 756 mmHg 80%
    03:00 +29°C° 0 mm 4 mps 755 mmHg 80%
    04:00 +29°C° 0 mm 4 mps 755 mmHg 80%
    05:00 +29°C° 0 mm 4 mps 756 mmHg 81%
    06:00 +29°C° 0 mm 3 mps 756 mmHg 81%
    07:00 +31°C° 0 mm 3 mps 756 mmHg 73%
    08:00 +33°C° 0 mm 3 mps 757 mmHg 65%
    09:00 +35°C° 0 mm 2 mps 757 mmHg 58%
    10:00 +36°C° 0 mm 3 mps 757 mmHg 53%
    11:00 +38°C° 0 mm 3 mps 757 mmHg 48%
    12:00 +40°C° 0 mm 4 mps 756 mmHg 44%
    13:00 +38°C° 0 mm 4 mps 756 mmHg 46%
    14:00 +39°C° 0 mm 5 mps 755 mmHg 48%
    15:00 +37°C° 0 mm 5 mps 754 mmHg 50%
    16:00 +36°C° 0 mm 5 mps 754 mmHg 57%
    17:00 +34°C° 0 mm 5 mps 754 mmHg 63%
    18:00 +32°C° 0 mm 5 mps 755 mmHg 70%
    19:00 +32°C° 0 mm 5 mps 755 mmHg 72%
    20:00 +32°C° 0 mm 5 mps 756 mmHg 74%
    21:00 +30°C° 0 mm 5 mps 757 mmHg 77%
    22:00 +30°C° 0 mm 5 mps 757 mmHg 77%
    23:00 +30°C° 0 mm 5 mps 757 mmHg 77%

    Day after tomorrow, 21 February, Thursday

    Time Temperature Precipitation Wind Pressure Humidity
    00:00 +30°C° 0 mm 6 mps 757 mmHg 78%
    01:00 +30°C° 0 mm 5 mps 757 mmHg 78%
    02:00 +30°C° 0 mm 5 mps 757 mmHg 79%
    03:00 +30°C° 0 mm 5 mps 756 mmHg 79%
    04:00 +30°C° 0 mm 5 mps 757 mmHg 79%
    05:00 +29°C° 0 mm 5 mps 757 mmHg 79%
    06:00 +29°C° 0 mm 5 mps 757 mmHg 79%
    07:00 +32°C° 0 mm 4 mps 758 mmHg 73%
    08:00 +33°C° 0 mm 4 mps 759 mmHg 68%
    09:00 +34°C° 0 mm 4 mps 759 mmHg 62%
    10:00 +35°C° 0 mm 4 mps 759 mmHg 58%
    11:00 +36°C° 0 mm 4 mps 758 mmHg 54%
    12:00 +37°C° 0 mm 5 mps 758 mmHg 50%
    13:00 +37°C° 0 mm 5 mps 757 mmHg 49%
    14:00 +37°C° 0 mm 5 mps 756 mmHg 49%
    15:00 +37°C° 0 mm 5 mps 755 mmHg 49%
    16:00 +36°C° 0 mm 5 mps 756 mmHg 56%
    17:00 +34°C° 0 mm 5 mps 756 mmHg 62%
    18:00 +33°C° 0 mm 5 mps 756 mmHg 69%
    19:00 +32°C° 0 mm 5 mps 757 mmHg 72%
    20:00 +32°C° 0 mm 5 mps 758 mmHg 75%
    21:00 +30°C° 0 mm 5 mps 758 mmHg 78%
    22:00 +30°C° 0 mm 5 mps 758 mmHg 78%
    23:00 +30°C° 0 mm 5 mps 758 mmHg 79%

    22 February, Friday

    Time Temperature Precipitation Wind Pressure Humidity
    00:00 +30°C° 0 mm 5 mps 758 mmHg 79%
    01:00 +30°C° 0 mm 5 mps 758 mmHg 80%
    02:00 +30°C° 0 mm 4 mps 757 mmHg 80%
    03:00 +29°C° 0 mm 4 mps 757 mmHg 81%
    04:00 +29°C° 0 mm 4 mps 757 mmHg 81%
    05:00 +29°C° 0 mm 4 mps 757 mmHg 82%
    06:00 +29°C° 0 mm 4 mps 757 mmHg 82%
    07:00 +30°C° 0 mm 4 mps 758 mmHg 76%
    08:00 +32°C° 0 mm 4 mps 758 mmHg 70%
    09:00 +34°C° 0 mm 4 mps 759 mmHg 64%
    10:00 +34°C° 0 mm 4 mps 758 mmHg 62%
    11:00 +35°C° 0 mm 4 mps 758 mmHg 59%
    12:00 +36°C° 0 mm 5 mps 757 mmHg 56%
    13:00 +36°C° 0 mm 5 mps 757 mmHg 55%
    14:00 +36°C° 0 mm 5 mps 756 mmHg 54%
    15:00 +36°C° 0 mm 5 mps 755 mmHg 54%
    16:00 +35°C° 0 mm 5 mps 755 mmHg 59%
    17:00 +34°C° 0 mm 5 mps 756 mmHg 64%
    18:00 +32°C° 0 mm 5 mps 756 mmHg 69%
    19:00 +32°C° 0 mm 5 mps 757 mmHg 72%
    20:00 +32°C° 0 mm 5 mps 757 mmHg 75%
    21:00 +30°C° 0 mm 5 mps 758 mmHg 78%
    22:00 +30°C° 0 mm 5 mps 758 mmHg 78%
    23:00 +30°C° 0 mm 5 mps 757 mmHg 79%

    23 February, Saturday

    Time Temperature Precipitation Wind Pressure Humidity
    00:00 +30°C° 0 mm 5 mps 757 mmHg 79%
    01:00 +30°C° 0 mm 5 mps 756 mmHg 80%
    02:00 +29°C° 0 mm 4 mps 756 mmHg 81%
    03:00 +29°C° 0 mm 4 mps 755 mmHg 82%
    04:00 +29°C° 0.1 mm 4 mps 756 mmHg 82%
    05:00 +29°C° 0.1 mm 4 mps 756 mmHg 81%
    06:00 +30°C° 0.1 mm 4 mps 757 mmHg 81%
    07:00 +32°C° 0.1 mm 4 mps 757 mmHg 75%
    08:00 +33°C° 0.1 mm 4 mps 758 mmHg 69%
    09:00 +34°C° 0.1 mm 5 mps 758 mmHg 64%
    10:00 +35°C° 1 mm 5 mps 758 mmHg 62%
    11:00 +35°C° 1 mm 5 mps 757 mmHg 59%
    12:00 +36°C° 1 mm 5 mps 757 mmHg 57%
    13:00 +36°C° 0.4 mm 5 mps 756 mmHg 56%
    14:00 +36°C° 0.4 mm 5 mps 755 mmHg 55%
    15:00 +36°C° 0.4 mm 5 mps 754 mmHg 55%
    16:00 +35°C° 0.1 mm 5 mps 755 mmHg 59%
    17:00 +34°C° 0.1 mm 5 mps 755 mmHg 63%
    18:00 +32°C° 0.1 mm 4 mps 755 mmHg 68%
    19:00 +32°C° 0 mm 4 mps 756 mmHg 70%
    20:00 +32°C° 0 mm 4 mps 756 mmHg 72%
    21:00 +30°C° 0 mm 4 mps 757 mmHg 75%
    22:00 +30°C° 0 mm 4 mps 756 mmHg 76%
    23:00 +30°C° 0 mm 5 mps 756 mmHg 77%

    24 February, Sunday

    Time Temperature Precipitation Wind Pressure Humidity
    00:00 +30°C° 0 mm 5 mps 756 mmHg 78%
    01:00 +30°C° 0 mm 5 mps 755 mmHg 79%
    02:00 +29°C° 0 mm 4 mps 755 mmHg 79%
    03:00 +29°C° 0 mm 4 mps 754 mmHg 80%
    04:00 +29°C° 0 mm 4 mps 755 mmHg 81%
    05:00 +29°C° 0 mm 3 mps 755 mmHg 82%
    06:00 +29°C° 0 mm 3 mps 756 mmHg 83%
    07:00 +30°C° 0 mm 3 mps 756 mmHg 76%
    08:00 +33°C° 0 mm 4 mps 757 mmHg 70%
    09:00 +34°C° 0 mm 4 mps 757 mmHg 64%
    10:00 +35°C° 0.2 mm 4 mps 757 mmHg 60%
    11:00 +36°C° 0.2 mm 5 mps 756 mmHg 55%
    12:00 +37°C° 0.2 mm 5 mps 756 mmHg 51%
    13:00 +37°C° 0.1 mm 5 mps 755 mmHg 51%
    14:00 +37°C° 0.1 mm 5 mps 754 mmHg 51%
    15:00 +37°C° 0.1 mm 5 mps 754 mmHg 51%
    16:00 +35°C° 0 mm 5 mps 754 mmHg 56%
    17:00 +34°C° 0 mm 5 mps 754 mmHg 62%
    18:00 +33°C° 0 mm 5 mps 754 mmHg 67%
    19:00 +32°C° 0.1 mm 4 mps 755 mmHg 70%
    20:00 +32°C° 0.1 mm 4 mps 755 mmHg 73%
    21:00 +30°C° 0.1 mm 4 mps 756 mmHg 75%
    22:00 +30°C° 0 mm 4 mps 755 mmHg 76%
    23:00 +30°C° 0 mm 4 mps 755 mmHg 77%
    Show more